FENGYUN 1C DEB

Satellite information

Favourite Embed

Satellite Type and Status

DEBRISIN ORBIT

Key statistics

Satellite FENGYUN 1C DEB at a glance.

Uptime

9720

Days in orbit

Revolutions

≈ 14.0

Per day

Orbit

SSO

Sun Synchronous Orbit

Inclination

97.6

Latest

Satellite identification and parameters

Extended collection of information and parameters for FENGYUN 1C DEB.

Object identification

Identified? True

Debris? True

Object name: FENGYUN 1C DEB

International designator: 1999-025DSK

Object number (NORAD): 36162

Object ID (CCSDS): 36162

Country: PEOPLES REPUBLIC OF CHINA (PRC)

Current information (Y/N): Y

RCS size: SMALL

Orbital parameters

Period: 102.813 minutes

Inclination: 97.6195 deg

SMA: 7269.847 km

Apoapsis: 1081.362 km

Periapsis: 702.062 km

RAAN: 68.4402 deg

Eccentricy: 0.02608725

Argument of periapsis: 27.781 deg

Mean anomaly: 333.7017 deg

Mean motion: 14.00602373 rev/day

Mean motion (dot): 0.00003634 rev/day2

B* drag term: 0.0018346041 1/REarth

Two-line elements (TLE)

Creation date: Sept. 25, 2025, 3:43 a.m.

Reference frame: TEME

Reference center: EARTH

Epoch: Sept. 11, 2025, 5:18 p.m. UTC

TLE line 0: 0 FENGYUN 1C DEB

TLE line 1: 1 36162U 99025DSK 25254.72131584 .00003634 00000-0 18346-2 0 9992

TLE line 2: 2 36162 97.6195 68.4402 0260872 27.7810 333.7017 14.00602373692334

Live tracking on map

Real-time ground track for satellite FENGYUN 1C DEB.

In-orbit conjunctions

A list of the most updated potential collisions computed for object FENGYUN 1C DEB.

Target Orbit TCA Probability of collision Miss distance Type
CZ-6A DEB LEO 2025-02-12 12:45:58 0.0002477349 783.0 (m) DEBRIS
CZ-4C DEB LEO 2024-09-27 22:08:28 0.0006418364 306.0 (m) DEBRIS

Associated space launch

Chinese polar orbiting meteorological satellite

FENGYUN 1C DEB was lifted into orbit during the mission ‘Long March 4B | Feng Yun 1C’, on board a Long March 4B space rocket.

The launch took place on May 10, 1999, 1:33 a.m. from Launch Complex 7.

For more information about the launch, click the button.

Launch to space Long March 4B | Feng Yun 1C
Long March 4B | Feng Yun 1C

Agency: N/A

Status: Launch Successful

Launch date: May 10, 1999, 1:33 a.m. UTC

Rocket: Long March 4B

Launch pad: Launch Complex 7

Location: Taiyuan Satellite Launch Center, People's Republic of China

...

Latest news about this satellite

There are no fresh news available about this satellite. Check back as we update our databases every day.


Newsletter sign-up

Weekly statistics, charts and insights to help you stay on top of the space industry.